Regional Weather Roundup
Issued by NWS

Home | Current Version | Previous Version | Graphics & Text | Print | Product List | Glossary On
Versions: 1 2 3 4 5 6 7 8 9 10 11 12 13 14 15 16 17 18 19 20 21 22 23 24 25 26 27 28 29 30 31 32 33 34 35 36 37 38 39 40 41 42 43 44 45 46 47 48 49 50
247
ASUS43 KBIS 091402
RWRND

NORTH DAKOTA REGIONAL WEATHER ROUNDUP
NATIONAL WEATHER SERVICE BISMARCK ND
800 AM CST TUE FEB 09 2016

NOTE: "FAIR" INDICATES FEW OR NO CLOUDS BELOW 12,000 FEET WITH NO
SIGNIFICANT WEATHER AND/OR OBSTRUCTIONS TO VISIBILITY.


NDZ001>003-009>011-017-091500-
NORTHWEST NORTH DAKOTA

CITY           SKY/WX    TMP DP  RH WIND       PRES   REMARKS
WILLISTON      CLOUDY    29  23  78 CALM      30.21R
MINOT          CLOUDY    26   9  48 SW10      30.21S WCI  16
MINOT AFB      CLOUDY    23  11  62 CALM      30.21F
$$

NDZ018>021-031>035-040>046-091500-
SOUTHWEST NORTH DAKOTA

CITY           SKY/WX    TMP DP  RH WIND       PRES   REMARKS
BISMARCK       CLOUDY    25  12  58 SW5       30.26S WCI  19
DICKINSON      MOCLDY    20  15  81 S5        30.15F WCI  13
GARRISON         N/A     22  12  65 S6        30.22S WCI  14
HETTINGER ARPT CLOUDY    26  17  68 VRB3      30.20S
$$

NDZ004>008-012>016-024-026-027-054-091500-
NORTHEAST NORTH DAKOTA

CITY           SKY/WX    TMP DP  RH WIND       PRES   REMARKS
GRAND FORKS    CLOUDY    11   4  73 N12       30.29S WCI  -3
GRND FRKS AFB  CLOUDY    10   3  74 N9        30.29R WCI  -3
DEVILS LAKE    CLOUDY    15  10  80 N3        30.26R
$$

NDZ022-023-025-028>030-036>039-047>053-091500-
SOUTHEAST NORTH DAKOTA

CITY           SKY/WX    TMP DP  RH WIND       PRES   REMARKS
FARGO          CLOUDY    11   4  73 N10       30.28R WCI  -3
JAMESTOWN      CLOUDY    16   9  74 NW7       30.24S WCI   6
$$





USA.gov is the U.S. government's official web portal to all federal, state and local government web resources and services.